Vorticity
12 11 5 4 3 3 0 2 3 3 4 -1 11 5 6 10 4 5 6 10 13 12 14 11 8 5 5 15 14 15 8 6
10 2 4 3 4 5 3 8 2 4 1 14 0 5 6 7 11 12 6 17 10 10 9 9 4 5 14 12 13 7 5 8
7 9 -2 6 4 6 9 4 4 1 13 -0 5 4 8 9 11 5 14 8 7 11 9 5 4 12 13 12 8 6 7 10
9 7 -5 16 9 8 5 2 2 7 -0 5 10 15 -2 16 12 13 8 7 14 11 5 4 11 15 13 9 6 7 14 26
4 7 17 19 10 6 3 7 4 1 5 15 3 11 4 3 14 7 6 13 11 6 5 11 17 11 9 6 7 13 28 21
13 7 -1 2 6 9 6 -1 6 7 6 -2 9 6 15 6 11 6 11 13 7 6 10 17 11 9 7 7 14 23 19 15
13 15 12 7 -0 2 9 2 12 14 2 -1 7 3 15 10 5 11 12 8 7 8 17 11 9 7 7 13 18 19 20 25
9 13 -0 0 16 10 0 11 24 2 7 12 3 13 18 7 7 12 9 8 8 18 11 10 7 5 10 17 20 24 22 17
9 -3 5 24 9 4 13 -6 6 5 11 9 5 18 2 1 9 11 10 10 18 12 8 8 5 8 17 18 24 21 13 10
6 -3 17 21 19 -5 -22 7 7 11 5 6 14 5 8 8 14 12 11 18 13 8 9 6 6 13 14 27 20 13 9 13
-1 24 15 4 -14 -3 11 17 3 -2 16 13 15 6 8 10 14 12 15 14 10 8 7 5 10 14 18 23 11 11 11 10
28 5 -2 5 8 12 -9 -2 6 16 11 19 5 1 9 16 11 12 17 10 8 9 6 7 13 13 21 16 10 11 11 11
10 10 6 8 4 1 18 12 -3 16 3 16 5 5 16 12 13 15 13 8 8 7 6 9 15 13 19 13 12 11 12 13
13 15 12 19 14 15 -9 9 5 13 25 2 7 19 11 11 12 16 10 7 8 7 6 11 16 13 17 12 12 12 12 13
13 16 12 13 10 7 13 6 25 11 1 10 18 13 10 13 15 14 7 7 7 7 6 15 13 14 18 13 11 13 12 12
14 11 13 12 10 -3 14 13 12 4 5 16 14 14 14 12 16 9 7 6 7 6 7 20 10 15 18 12 12 13 11 12
17 17 -9 8 14 23 13 29 10 12 24 14 14 13 11 14 14 8 6 7 6 6 8 22 8 14 15 11 11 12 11 10
18 17 5 10 6 7 8 12 12 7 9 18 12 14 12 16 9 10 8 5 5 6 10 22 8 12 13 10 10 12 9 11
3 6 14 11 13 11 11 9 13 16 21 13 14 10 16 11 10 11 9 5 4 6 10 23 7 11 13 10 10 11 9 13
Height
5823 5819 5814 5807 5801 5794 5788 5782 5776 5769 5762 5755 5746 5739 5730 5721 5711 5701 5690 5679 5668 5658 5649 5640 5629 5619 5609 5597 5586 5576 5568 5555
5817 5812 5807 5801 5794 5787 5780 5775 5768 5761 5754 5745 5737 5729 5719 5710 5699 5687 5677 5667 5657 5647 5638 5627 5616 5605 5594 5584 5573 5562 5550 5540
5811 5806 5801 5794 5786 5779 5773 5766 5759 5752 5743 5735 5727 5718 5708 5698 5687 5677 5667 5657 5646 5636 5626 5615 5604 5592 5580 5570 5559 5548 5533 5522
5804 5800 5793 5787 5779 5772 5765 5758 5750 5742 5734 5725 5716 5708 5699 5689 5678 5667 5657 5646 5635 5625 5615 5605 5593 5581 5570 5558 5545 5533 5519 5503
5798 5792 5786 5779 5771 5765 5757 5750 5742 5734 5726 5717 5709 5699 5688 5679 5668 5658 5647 5636 5625 5615 5604 5593 5581 5570 5558 5545 5532 5518 5504 5492
5790 5784 5778 5771 5764 5756 5750 5742 5734 5727 5718 5710 5699 5688 5679 5668 5659 5649 5638 5627 5617 5606 5594 5582 5571 5558 5546 5534 5517 5503 5492 5480
5782 5776 5769 5763 5756 5750 5741 5735 5727 5719 5710 5700 5690 5680 5670 5660 5649 5639 5628 5618 5608 5597 5585 5574 5561 5549 5536 5520 5506 5494 5481 5471
5774 5767 5762 5756 5749 5741 5734 5727 5718 5710 5700 5691 5683 5672 5662 5653 5642 5631 5620 5609 5598 5586 5575 5564 5553 5540 5524 5509 5497 5484 5474 5466
5766 5760 5753 5746 5740 5733 5726 5718 5709 5700 5691 5684 5675 5665 5655 5645 5634 5623 5612 5602 5590 5579 5567 5557 5544 5530 5515 5502 5488 5479 5470 5462
5759 5751 5744 5738 5730 5723 5717 5709 5701 5693 5685 5676 5667 5657 5647 5637 5626 5615 5604 5593 5582 5570 5560 5548 5535 5520 5507 5494 5483 5474 5466 5457
5748 5742 5735 5729 5723 5716 5709 5702 5694 5686 5677 5668 5659 5649 5639 5628 5617 5607 5596 5585 5575 5564 5553 5541 5526 5512 5499 5488 5478 5470 5461 5453
5739 5733 5728 5722 5716 5709 5702 5694 5686 5678 5669 5659 5651 5641 5631 5619 5609 5599 5589 5578 5569 5558 5547 5535 5519 5506 5493 5483 5475 5466 5456 5447
5733 5726 5721 5715 5709 5702 5695 5687 5679 5670 5661 5652 5643 5633 5621 5611 5601 5592 5583 5573 5563 5553 5541 5529 5514 5500 5489 5480 5470 5461 5452 5443
5726 5720 5713 5706 5700 5694 5687 5679 5670 5662 5653 5645 5635 5624 5613 5604 5594 5585 5577 5568 5558 5548 5535 5523 5509 5497 5486 5476 5466 5457 5448 5439
5719 5711 5705 5698 5692 5686 5679 5670 5661 5654 5646 5637 5627 5616 5606 5596 5588 5580 5572 5563 5553 5543 5530 5518 5505 5493 5484 5474 5464 5454 5444 5435
5713 5705 5699 5692 5686 5679 5671 5664 5655 5647 5639 5629 5618 5610 5601 5591 5583 5576 5567 5559 5549 5538 5526 5513 5502 5491 5482 5472 5461 5451 5441 5431
5707 5700 5694 5687 5680 5672 5664 5656 5649 5641 5632 5621 5611 5603 5596 5587 5578 5571 5563 5554 5545 5534 5523 5511 5500 5489 5479 5468 5458 5448 5436 5426
5702 5696 5689 5682 5674 5666 5659 5651 5643 5634 5625 5616 5607 5598 5591 5583 5574 5567 5560 5551 5541 5531 5520 5509 5499 5488 5477 5466 5455 5444 5433 5423
5699 5692 5684 5676 5669 5661 5654 5646 5637 5628 5619 5611 5602 5595 5588 5579 5571 5564 5557 5549 5539 5529 5518 5508 5498 5487 5476 5464 5452 5441 5430 5421